Simultaneous Nadir Overpasses (SNOs) Predictions

Prediction of SNOs between GOES-16 and METOP-C Satellite Orbit:

Table of predicted SNOs for the next 14.0 days since TLE Epoch: 4/2/2022
Index Date Time (GOES-16) GOES-16 Lat,Lon METOP-C Lat,Lon Distance(km) Time Diff (sec)
1 04/02/2022 14:18:58 0.06, -75.22 -0.59, -72.31 331.61 80
2 04/04/2022 02:40:37 -0.06, -75.21 -0.43, -76.91 193.03 80
3 04/05/2022 02:17:18 -0.06, -75.21 0.68, -71.91 376.38 80
4 04/06/2022 14:38:50 0.06, -75.24 0.35, -76.47 141.21 80
5 04/07/2022 14:15:31 0.05, -75.25 -0.77, -71.48 428.49 80
6 04/09/2022 02:37:10 -0.05, -75.24 -0.25, -76.07 95.51 80
7 04/10/2022 02:13:50 -0.05, -75.25 0.87, -71.08 474.43 80
8 04/11/2022 14:35:23 0.05, -75.28 0.15, -75.65 42.27 80
9 04/14/2022 02:31:03 -0.04, -75.30 -0.04, -75.25 5.59 80
